�N����,����,�~����,�C��,���x,�C��,����,���ϕ���,�ő�u�ԕ���,�ő厞����,���˗�,�I�_���x,�n�����x,�ő啗���N��,DTYPE
"16/09/12","00:10",0.0,23.7,85.5,1010.0,332.4,1.1,2.4,353.2,0.00,21.2,25.5,"00:00:24",1
"16/09/12","00:20",0.0,23.7,85.5,1010.0,330.1,1.2,3.5,343.7,0.00,21.2,25.2,"00:12:48",1
"16/09/12","00:30",0.0,23.6,85.8,1010.0,331.8,1.1,1.9,343.4,0.00,21.1,25.4,"00:23:04",1
"16/09/12","00:40",0.0,23.2,86.6,1010.2,321.7,1.3,2.6,331.9,0.00,20.9,25.4,"00:37:12",1
"16/09/12","00:50",0.0,23.1,87.3,1009.7,314.7,1.2,2.0,334.7,0.00,20.9,25.5,"00:45:36",1
"16/09/12","01:00",0.0,23.0,87.8,1010.0,326.0,1.3,2.5,335.1,0.00,20.9,25.2,"00:54:00",1
"16/09/12","01:10",0.0,22.9,88.2,1009.7,309.4,1.2,2.2,314.4,0.00,20.9,25.2,"01:03:44",1
"16/09/12","01:20",0.0,22.8,88.6,1010.2,313.8,1.3,1.8,308.4,0.00,20.9,25.2,"01:18:32",1
"16/09/12","01:30",0.0,22.7,88.8,1010.0,311.7,1.3,2.1,343.1,0.00,20.8,25.1,"01:26:48",1
"16/09/12","01:40",0.0,22.7,89.0,1010.2,316.5,1.3,2.0,341.0,0.00,20.8,25.2,"01:35:52",1
"16/09/12","01:50",0.0,22.7,89.2,1010.0,294.5,1.1,1.7,317.1,0.00,20.9,25.0,"01:49:12",1
"16/09/12","02:00",0.0,22.7,89.0,1010.0,288.0,1.1,1.6,297.6,0.00,20.8,25.1,"01:51:36",1
"16/09/12","02:10",0.0,22.7,89.1,1010.2,295.5,1.2,1.8,316.0,0.00,20.9,24.9,"02:09:44",1
"16/09/12","02:20",0.0,22.7,89.3,1010.4,291.4,1.0,1.7,312.3,0.00,20.9,25.1,"02:10:32",1
"16/09/12","02:30",0.0,22.6,89.4,1010.4,306.3,1.2,1.9,322.9,0.00,20.8,24.9,"02:26:56",1
"16/09/12","02:40",0.0,22.6,89.4,1010.2,319.8,1.6,2.8,345.1,0.00,20.8,25.0,"02:33:52",1
"16/09/12","02:50",0.0,22.5,89.6,1010.4,295.9,1.0,1.7,328.8,0.00,20.7,24.8,"02:40:16",1
"16/09/12","03:00",0.0,22.4,89.9,1010.4,302.8,1.0,1.8,319.2,0.00,20.7,24.8,"02:52:08",1
"16/09/12","03:10",0.0,22.4,90.0,1010.2,281.9,0.8,1.4,275.1,0.00,20.7,24.9,"03:09:20",1
"16/09/12","03:20",0.0,22.3,90.2,1010.2,288.6,0.8,1.3,288.1,0.00,20.7,24.8,"03:10:32",1
"16/09/12","03:30",0.0,22.4,90.4,1010.4,291.5,0.8,1.9,317.4,0.00,20.8,24.9,"03:28:00",1
"16/09/12","03:40",0.0,22.3,90.3,1010.4,286.6,0.8,1.3,312.3,0.00,20.7,24.7,"03:39:20",1
"16/09/12","03:50",0.0,22.2,90.5,1010.4,300.2,1.0,1.8,319.4,0.00,20.6,24.9,"03:47:20",1
"16/09/12","04:00",0.0,22.2,90.7,1010.2,323.0,1.1,1.9,325.9,0.00,20.6,24.5,"03:59:52",1
"16/09/12","04:10",0.0,22.2,90.9,1010.4,289.2,1.0,1.6,324.5,0.00,20.7,24.6,"04:00:08",1
"16/09/12","04:20",0.0,22.2,90.9,1010.2,293.7,1.0,1.4,307.7,0.00,20.7,24.8,"04:12:08",1
"16/09/12","04:30",0.0,22.2,90.9,1010.7,279.1,0.8,1.0,277.7,0.00,20.7,24.5,"04:20:40",1
"16/09/12","04:40",0.0,22.2,91.0,1010.7,286.8,1.0,1.6,323.5,0.00,20.7,24.7,"04:36:48",1
"16/09/12","04:50",0.0,22.3,91.1,1010.4,282.7,0.8,1.1,257.7,0.00,20.8,24.7,"04:42:48",1
"16/09/12","05:00",0.0,22.4,91.1,1010.7,303.0,1.0,1.6,312.3,0.00,20.9,24.7,"04:58:16",1
"16/09/12","05:10",0.0,22.5,91.0,1011.2,329.4,1.0,1.4,330.1,0.00,21.0,24.5,"05:02:16",1
"16/09/12","05:20",0.0,22.6,90.8,1010.7,321.9,1.0,1.4,338.9,0.00,21.1,24.7,"05:11:12",1
"16/09/12","05:30",0.0,22.6,90.8,1010.4,289.7,0.8,1.0,298.6,0.00,21.1,24.7,"05:23:52",1
"16/09/12","05:40",0.0,22.6,91.0,1010.4,282.0,0.7,0.9,283.5,0.00,21.1,24.6,"05:31:36",1
"16/09/12","05:50",0.0,22.5,90.8,1010.7,286.5,0.7,1.0,297.5,0.00,21.0,24.7,"05:49:12",1
"16/09/12","06:00",0.0,22.6,90.8,1010.4,283.4,0.8,1.0,259.4,0.00,21.1,24.4,"05:52:40",1
"16/09/12","06:10",0.0,22.6,90.7,1010.7,291.3,1.0,1.4,326.5,0.00,21.0,24.6,"06:02:08",1
"16/09/12","06:20",0.0,22.7,90.5,1010.4,292.3,0.7,1.3,338.7,0.00,21.1,24.4,"06:14:24",1
"16/09/12","06:30",0.0,22.9,90.7,1010.7,287.7,0.7,1.1,311.8,0.00,21.3,24.5,"06:25:12",1
"16/09/12","06:40",0.0,23.2,90.1,1010.4,297.2,0.5,0.8,314.1,0.02,21.5,24.7,"06:30:08",1
"16/09/12","06:50",0.0,23.4,89.4,1010.7,294.4,0.5,0.8,311.5,0.02,21.6,24.6,"06:41:36",1
"16/09/12","07:00",0.0,23.7,88.7,1010.9,294.5,0.5,0.8,303.5,0.02,21.8,24.5,"06:58:00",1
"16/09/12","07:10",0.0,24.2,87.3,1010.7,318.0,0.7,1.6,350.2,0.04,22.0,24.6,"07:06:16",1
"16/09/12","07:20",0.0,24.7,85.2,1010.9,280.2,0.3,0.8,344.5,0.08,22.1,24.7,"07:10:32",1
"16/09/12","07:30",0.0,25.4,82.0,1010.9,210.0,0.1,0.9,108.3,0.12,22.1,24.7,"07:25:52",1
"16/09/12","07:40",0.0,26.2,79.9,1010.7,135.9,0.2,0.8,70.2,0.15,22.5,24.9,"07:35:04",1
"16/09/12","07:50",0.0,26.1,79.8,1010.4,197.5,0.5,1.2,227.1,0.13,22.4,25.1,"07:43:28",1
"16/09/12","08:00",0.0,26.2,77.7,1010.2,178.8,0.3,1.0,230.6,0.12,22.0,25.0,"07:52:40",1
"16/09/12","08:10",0.0,26.1,78.6,1010.2,145.2,0.5,0.9,209.2,0.10,22.1,25.0,"08:03:36",1
"16/09/12","08:20",0.0,26.8,77.3,1010.0,42.3,0.1,0.8,3.5,0.15,22.5,25.0,"08:14:32",1
"16/09/12","08:30",0.0,27.2,76.0,1009.5,122.2,0.1,0.8,0.2,0.17,22.6,25.2,"08:27:04",1
"16/09/12","08:40",0.0,27.3,74.6,1010.2,28.4,0.6,1.6,46.5,0.24,22.4,25.2,"08:32:08",1
"16/09/12","08:50",0.0,28.1,72.3,1010.2,96.8,0.3,1.1,187.2,0.27,22.7,25.7,"08:49:28",1
"16/09/12","09:00",0.0,27.2,73.8,1010.4,111.2,0.7,1.6,29.4,0.11,22.2,25.7,"08:57:20",1
"16/09/12","09:10",0.0,27.5,73.0,1010.2,64.8,0.6,1.6,18.0,0.14,22.3,25.5,"09:00:24",1
"16/09/12","09:20",0.0,27.7,73.3,1010.0,99.7,0.6,1.6,65.1,0.13,22.5,25.6,"09:16:08",1
"16/09/12","09:30",0.0,28.0,72.1,1009.7,103.0,0.7,1.9,68.6,0.18,22.5,26.0,"09:20:24",1
"16/09/12","09:40",0.0,28.0,69.3,1010.0,106.0,0.8,1.8,125.0,0.16,21.9,25.7,"09:34:00",1
"16/09/12","09:50",0.0,28.0,70.1,1009.5,135.1,0.7,1.8,136.3,0.15,22.1,25.9,"09:40:08",1
"16/09/12","10:00",0.0,27.9,70.1,1009.5,124.7,1.2,2.6,142.2,0.14,22.0,25.8,"09:51:28",1
"16/09/12","10:10",0.0,28.0,70.6,1009.7,91.7,0.7,1.8,92.5,0.14,22.2,26.0,"10:04:24",1
"16/09/12","10:20",0.0,27.9,70.1,1009.3,96.0,0.7,1.8,98.6,0.12,22.0,26.2,"10:12:40",1
"16/09/12","10:30",0.0,28.0,70.3,1009.3,88.4,0.7,1.7,129.4,0.13,22.1,26.0,"10:21:04",1
"16/09/12","10:40",0.0,28.1,69.0,1008.8,78.6,1.0,2.7,151.4,0.13,21.9,26.2,"10:32:48",1
"16/09/12","10:50",0.0,28.3,68.6,1009.3,104.5,0.7,2.0,109.0,0.15,22.0,26.2,"10:40:40",1
"16/09/12","11:00",0.0,28.4,69.0,1009.3,94.7,1.0,2.2,44.9,0.15,22.2,26.2,"10:56:00",1
"16/09/12","11:10",0.0,28.4,68.1,1009.5,81.4,0.8,2.5,50.0,0.14,22.0,26.3,"11:09:52",1
"16/09/12","11:20",0.0,28.4,69.7,1009.3,102.3,0.8,1.8,89.5,0.14,22.4,26.2,"11:14:24",1
"16/09/12","11:30",0.0,28.5,68.6,1009.0,99.8,0.7,1.8,14.8,0.11,22.2,26.1,"11:24:08",1
"16/09/12","11:40",0.0,28.4,68.9,1008.8,87.4,0.7,2.0,7.0,0.10,22.2,26.5,"11:34:24",1
"16/09/12","11:50",0.0,28.5,69.1,1008.8,105.4,1.0,1.9,110.0,0.13,22.3,26.4,"11:47:28",1
"16/09/12","12:00",0.0,28.9,68.3,1008.6,94.4,0.7,2.0,50.3,0.15,22.5,26.3,"11:54:24",1
"16/09/12","12:10",0.0,28.5,68.5,1008.6,111.7,1.1,2.5,96.9,0.13,22.2,26.4,"12:09:52",1
"16/09/12","12:20",0.0,28.4,68.4,1008.6,111.9,1.0,2.0,163.0,0.11,22.1,26.5,"12:16:08",1
"16/09/12","12:30",0.0,28.5,68.0,1008.6,83.2,0.7,2.5,121.8,0.10,22.1,26.5,"12:20:40",1
"16/09/12","12:40",0.0,28.7,68.4,1008.6,82.3,0.6,2.0,354.6,0.09,22.3,26.4,"12:34:16",1
"16/09/12","12:50",0.0,29.1,67.4,1008.1,112.2,0.5,1.6,136.5,0.15,22.5,26.5,"12:49:52",1
"16/09/12","13:00",0.0,30.0,65.3,1008.1,111.4,0.6,1.9,81.4,0.24,22.8,26.4,"12:56:56",1
"16/09/12","13:10",0.0,29.8,64.5,1008.3,61.3,1.0,2.5,79.9,0.26,22.4,26.7,"13:06:24",1
"16/09/12","13:20",0.0,30.0,63.0,1008.1,73.2,1.1,2.5,18.0,0.27,22.2,26.8,"13:19:28",1
"16/09/12","13:30",0.0,29.9,63.4,1008.6,106.9,0.8,2.0,128.7,0.19,22.2,26.7,"13:24:56",1
"16/09/12","13:40",0.0,30.9,61.7,1008.6,88.2,0.7,2.4,151.2,0.36,22.7,27.0,"13:38:48",1
"16/09/12","13:50",0.0,30.2,61.6,1008.6,105.3,1.0,2.1,21.1,0.18,22.0,27.1,"13:42:00",1
"16/09/12","14:00",0.0,30.0,62.5,1008.6,85.3,0.8,1.7,112.4,0.17,22.1,27.2,"13:50:24",1
"16/09/12","14:10",0.0,30.1,62.6,1007.8,142.4,1.2,2.6,134.1,0.21,22.2,27.2,"14:00:24",1
"16/09/12","14:20",0.0,30.2,61.2,1008.1,97.4,1.1,2.5,101.5,0.15,21.9,27.1,"14:18:40",1
"16/09/12","14:30",0.0,29.6,62.6,1007.4,94.5,1.0,2.6,83.9,0.07,21.7,27.2,"14:24:32",1
"16/09/12","14:40",0.0,30.0,62.1,1007.4,104.9,1.1,2.2,134.9,0.20,22.0,27.1,"14:35:44",1
"16/09/12","14:50",0.0,30.0,62.0,1007.4,74.7,1.2,3.1,30.5,0.18,22.0,27.3,"14:46:24",1
"16/09/12","15:00",0.0,29.9,62.0,1007.4,80.5,1.0,2.8,34.7,0.09,21.9,27.2,"14:55:20",1
"16/09/12","15:10",0.0,29.3,64.5,1006.7,86.8,1.2,3.1,76.0,0.08,22.0,27.3,"15:06:40",1
"16/09/12","15:20",0.0,29.2,65.6,1006.4,75.6,1.2,2.8,99.0,0.03,22.1,27.2,"15:10:24",1
"16/09/12","15:30",0.0,28.8,66.3,1006.7,48.5,0.7,1.7,11.8,0.01,21.9,27.1,"15:20:24",1
"16/09/12","15:40",0.0,28.6,67.6,1006.0,48.8,1.0,2.4,74.0,0.01,22.1,27.0,"15:30:08",1
"16/09/12","15:50",0.0,28.4,68.6,1006.2,25.1,1.1,3.2,336.3,0.00,22.1,27.0,"15:44:32",1
"16/09/12","16:00",0.0,28.2,69.9,1006.7,30.9,0.7,2.1,26.7,0.00,22.2,27.1,"15:52:16",1
"16/09/12","16:10",0.0,28.1,70.0,1006.7,13.2,1.1,3.3,357.4,0.02,22.2,26.8,"16:06:32",1
"16/09/12","16:20",0.0,28.4,67.0,1006.7,72.6,1.0,2.2,353.4,0.03,21.7,27.0,"16:10:16",1
"16/09/12","16:30",0.0,28.6,67.4,1006.7,59.9,0.8,2.2,29.7,0.01,22.0,27.0,"16:23:52",1
"16/09/12","16:40",0.0,28.5,69.6,1006.7,99.8,0.6,1.4,15.6,0.04,22.4,26.8,"16:30:08",1
"16/09/12","16:50",0.0,28.4,66.7,1006.9,109.5,0.8,2.7,132.3,0.01,21.6,27.0,"16:43:52",1
"16/09/12","17:00",0.0,28.4,65.9,1006.9,143.5,1.1,4.4,224.0,0.00,21.5,26.8,"16:59:20",1
"16/09/12","17:10",0.0,28.3,65.2,1007.1,154.5,1.6,4.3,144.9,0.00,21.2,26.6,"17:03:52",1
"16/09/12","17:20",0.0,28.3,65.6,1006.9,172.7,1.8,3.4,165.6,0.00,21.3,26.7,"17:16:56",1
"16/09/12","17:30",0.0,28.1,65.9,1006.9,160.2,1.5,2.9,136.2,0.00,21.2,26.7,"17:26:08",1
"16/09/12","17:40",0.0,28.0,65.8,1006.9,176.1,1.5,3.6,182.7,0.00,21.0,26.5,"17:30:16",1
"16/09/12","17:50",0.0,27.8,66.0,1007.1,148.3,1.2,3.3,189.6,0.00,20.9,26.7,"17:45:04",1
"16/09/12","18:00",0.0,27.6,65.7,1007.4,128.9,1.2,3.3,144.5,0.00,20.6,26.4,"17:54:48",1
"16/09/12","18:10",0.0,27.5,66.1,1007.6,144.0,1.3,4.2,128.3,0.00,20.6,26.2,"18:07:36",1
"16/09/12","18:20",0.0,27.3,66.8,1007.1,151.6,1.2,3.1,120.2,0.00,20.6,26.3,"18:12:40",1
"16/09/12","18:30",0.0,27.2,67.1,1007.8,146.3,1.2,3.6,138.9,0.00,20.6,26.3,"18:27:52",1
"16/09/12","18:40",0.0,27.0,67.7,1007.4,155.3,1.2,2.7,130.2,0.00,20.6,26.2,"18:36:40",1
"16/09/12","18:50",0.0,26.9,67.8,1007.4,148.6,1.2,2.7,183.9,0.00,20.5,26.1,"18:40:32",1
"16/09/12","19:00",0.0,26.9,68.2,1007.6,152.0,1.0,2.6,160.0,0.00,20.6,26.2,"18:51:36",1
"16/09/12","19:10",0.0,26.8,68.3,1007.6,160.3,1.2,3.6,138.8,0.00,20.5,26.0,"19:03:36",1
"16/09/12","19:20",0.0,26.7,68.8,1007.6,153.7,0.8,2.1,121.7,0.00,20.5,25.9,"19:16:08",1
"16/09/12","19:30",0.0,26.7,68.9,1007.4,147.7,1.0,3.1,128.8,0.00,20.6,26.3,"19:21:04",1
"16/09/12","19:40",0.0,26.7,69.2,1007.8,165.5,0.7,2.0,126.3,0.00,20.6,25.9,"19:30:16",1
"16/09/12","19:50",0.0,26.7,69.3,1007.8,148.8,0.8,2.1,69.6,0.00,20.7,25.9,"19:42:48",1
"16/09/12","20:00",0.0,26.6,68.8,1008.1,157.8,1.1,2.9,157.1,0.00,20.4,25.8,"19:58:08",1
"16/09/12","20:10",0.0,26.7,69.1,1008.1,149.3,1.0,2.1,162.0,0.00,20.6,25.7,"20:02:08",1
"16/09/12","20:20",0.0,26.6,68.4,1008.1,148.1,1.0,2.2,168.7,0.00,20.3,25.7,"20:12:16",1
"16/09/12","20:30",0.0,26.6,68.1,1008.1,151.6,1.0,2.7,136.4,0.00,20.3,25.7,"20:25:36",1
"16/09/12","20:40",0.0,26.5,67.6,1008.1,134.3,1.0,2.5,106.0,0.00,20.1,26.0,"20:38:32",1
"16/09/12","20:50",0.0,26.6,68.3,1008.1,154.5,0.8,2.7,165.2,0.00,20.3,25.8,"20:43:36",1
"16/09/12","21:00",0.0,26.4,70.0,1008.1,124.3,0.6,1.7,96.9,0.00,20.5,25.3,"20:56:16",1
"16/09/12","21:10",0.0,26.2,70.8,1008.1,107.8,0.5,1.1,137.0,0.00,20.5,25.7,"21:06:40",1
"16/09/12","21:20",0.0,26.2,70.7,1008.1,63.6,0.6,1.9,99.7,0.00,20.5,25.6,"21:18:00",1
"16/09/12","21:30",0.0,26.2,70.4,1008.3,80.5,0.7,2.0,76.0,0.00,20.4,25.4,"21:27:44",1
"16/09/12","21:40",0.0,26.2,70.8,1008.1,39.4,0.6,1.8,114.7,0.00,20.5,25.3,"21:30:40",1
"16/09/12","21:50",0.0,26.0,71.1,1008.1,103.0,0.7,2.2,95.2,0.00,20.4,25.5,"21:49:04",1
"16/09/12","22:00",0.0,26.0,71.2,1008.3,70.4,0.6,1.7,76.4,0.00,20.4,25.4,"21:51:52",1
"16/09/12","22:10",0.0,26.1,71.2,1008.1,76.3,1.0,1.9,62.8,0.00,20.5,25.7,"22:09:28",1
"16/09/12","22:20",0.0,26.2,71.0,1008.1,46.9,0.7,1.9,99.2,0.00,20.6,25.3,"22:11:36",1
"16/09/12","22:30",0.0,26.2,71.6,1008.3,46.4,0.5,1.7,53.3,0.00,20.7,25.4,"22:25:44",1
"16/09/12","22:40",0.0,26.1,73.1,1008.1,84.8,0.8,2.0,73.9,0.00,20.9,25.4,"22:34:16",1
"16/09/12","22:50",0.0,25.7,75.6,1008.3,80.2,0.7,1.9,140.2,0.00,21.1,25.2,"22:45:36",1
"16/09/12","23:00",0.0,25.4,77.3,1007.8,39.5,0.7,1.8,134.9,0.00,21.2,25.3,"22:50:40",1
"16/09/12","23:10",0.0,25.4,78.4,1008.3,17.7,0.7,1.9,70.3,0.00,21.4,25.4,"23:03:28",1
"16/09/12","23:20",0.0,25.1,80.0,1008.3,298.5,0.3,0.9,339.3,0.00,21.4,25.4,"23:11:20",1
"16/09/12","23:30",1.4,24.6,82.9,1008.6,301.9,0.5,1.0,341.8,0.00,21.5,25.3,"23:29:28",1
"16/09/12","23:40",1.2,24.0,85.8,1008.3,298.8,0.5,0.9,340.1,0.00,21.5,25.0,"23:30:08",1
"16/09/12","23:50",2.0,23.6,87.9,1008.6,336.6,0.7,1.4,349.1,0.00,21.5,25.4,"23:46:02",1
"16/09/12","24:00",1.2,23.4,89.6,1008.1,326.0,0.6,1.6,339.0,0.00,21.6,25.3,"23:53:20",1
